This is the latest recevied weather packets stored in our database for station/object VK3MAK-1. If no packets are shown the sender has not sent any weather packets the latest 10 day(s).
| Time | Temp. | Humidity | Pressure | Rain* | Wind** | Luminosity | Snow |
|---|---|---|---|---|---|---|---|
| 1778202003 | 13.33° C | 10% | - | 0 mm | 6.26 m/s, 225° | - | - |
| 1778201403 | 13.33° C | 10% | - | 0.25 mm | 6.26 m/s, 225° | - | - |
| 1778200803 | 13.33° C | 10% | - | 0.25 mm | 6.26 m/s, 225° | - | - |
| 1778200203 | 12.22° C | 10% | - | 0.25 mm | 7.15 m/s, 225° | - | - |
| 1778199604 | 12.22° C | 10% | - | 0.51 mm | 7.15 m/s, 225° | - | - |
| 1778199004 | 12.78° C | 10% | - | 0.25 mm | 4.92 m/s, 248° | - | - |
| 1778198403 | 12.78° C | 10% | - | 0 mm | 4.47 m/s, 248° | - | - |
| 1778197803 | 12.78° C | 10% | - | 0 mm | 4.47 m/s, 248° | - | - |
| 1778197203 | 12.78° C | 10% | - | 0 mm | 4.47 m/s, 248° | - | - |
| 1778196603 | 12.22° C | 10% | - | 0 mm | 4.92 m/s, 225° | - | - |
| 1778196003 | 12.22° C | 10% | - | 0 mm | 4.92 m/s, 225° | - | - |
| 1778195403 | 12.22° C | 10% | - | 0 mm | 4.92 m/s, 225° | - | - |
| 1778194804 | 11.67° C | 10% | - | 0 mm | 4.47 m/s, 248° | - | - |
| 1778194203 | 11.67° C | 10% | - | 0.25 mm | 4.47 m/s, 248° | - | - |
| 1778193603 | 11.67° C | 10% | - | 0.25 mm | 4.47 m/s, 248° | - | - |
| 1778193003 | 11.67° C | 10% | - | 0 mm | 4.92 m/s, 225° | - | - |
| 1778192403 | 11.67° C | 10% | - | 0.51 mm | 4.92 m/s, 225° | - | - |
| 1778191806 | 11.67° C | 10% | - | 0.51 mm | 4.92 m/s, 225° | - | - |
| 1778191203 | 11.67° C | 10% | - | 0 mm | 5.36 m/s, 248° | - | - |
| 1778190603 | 11.67° C | 10% | - | 0.51 mm | 5.36 m/s, 248° | - | - |
| 1778190004 | 11.67° C | 10% | - | 0.51 mm | 5.36 m/s, 248° | - | - |
| 1778189404 | 11.67° C | 10% | - | 0 mm | 5.36 m/s, 248° | - | - |
| 1778188803 | 11.67° C | 10% | - | 0.25 mm | 5.36 m/s, 248° | - | - |
| 1778188203 | 11.67° C | 10% | - | 0.25 mm | 5.36 m/s, 248° | - | - |
| 1778187603 | 11.67° C | 10% | - | 0 mm | 4.92 m/s, 248° | - | - |
* Rain latest hour (hover to see other rain measurements)
** Current wind speed in m/s (hover to see current wind gust speed)